Location: Innsbruck
(47.2657°N, 11.3914°E)
Time: 19:02:40
(UTC+01:00)

BEESAT 3 - Pass Details

Date: 11 December 2021
Orbit: 472 x 512 km, 64.9° (Epoch: 22 January)

Event Time Altitude Azimuth Distance (km) Brightness Sun altitude
Rises 16:51:40 0° 183° (S) 2,541 ? -4.8°
Reaches altitude 10° 16:54:05 10° 169° (S) 1,674 ? -5.2°
Maximum altitude 16:57:04 23° 115° (ESE) 1,086 ? -5.6°
Drops below altitude 10° 17:00:08 10° 62° (ENE) 1,707 ? -6.1°
Enters shadow 17:00:40 - 58° (ENE) 1,890 ? -6.1°
